Location: Newark
(33.6439°N, 114.9881°W)
Time: 06:31:56
(UTC+00:00)

Tiros 1 - Pass Details

Date: 27 July 2019
Orbit: 631 x 664 km, 48.4° (Epoch: 24 August)

Event Time Altitude Azimuth Distance (km) Brightness Sun altitude
Rises 21:40:17 0° 314° (NW) 2,995 10.7 60.8°
Reaches altitude 10° 21:43:16 10° 332° (NNW) 2,082 9.9 60.2°
Maximum altitude 21:46:41 19° 17° (NNE) 1,572 9.2 59.6°
Drops below altitude 10° 21:50:05 10° 63° (ENE) 2,077 9.6 58.9°
Sets 21:53:03 0° 81° (E) 2,984 10.3 58.3°
